User: anonymous   Login
Location: Klickitat County Star Party
(45.8642°N, 120.6771°W)
Time: 05:08:45
(UTC-08:00)
Language:

AO-85 - Orbit

View from above orbital plane
View from above orbital plane
View from above satellite
View from above satellite

Ground track
Ground track

The orbit data is extracted from the following two-line orbital elements,

1 40967U 15058D   19317.63787769  .00000234  00000 0  44844-4 0  8680
2 40967  64.7755  69.1238 0182190 153.8379 207.2064 14.76025653129572
Epoch (UTC): 13 November 2019 15:18:32
Eccentricity: 0.0182190
inclination: 64.7755°
perigee height: 514 km
apogee height: 770 km
right ascension of ascending node: 69.1238°
argument of perigee: 153.8379°
revolutions per day: 14.76025653
mean anomaly at epoch: 207.2064°
orbit number at epoch: 12957

The dashed part of the orbit path shows where the satellite is in the earth's shadow,  

DLR